Time,TemperatureF,DewpointF,PressureIn,WindDirection,WindDirectionDegrees,WindSpeedMPH,WindSpeedGustMPH,Humidity,HourlyPrecipIn,Conditions,Clouds,dailyrainin,SoftwareType,DateUTC
2013-08-29 00:01:00,76.7,70.8,29.87,WNW,298,0.0,1.0,82,0.00,,---,0.00,VWS V14.01,2013-08-29 05:01:00,
2013-08-29 00:06:00,76.7,70.8,29.87,WNW,298,0.0,1.0,82,0.00,,---,0.00,VWS V14.01,2013-08-29 05:06:00,
2013-08-29 00:11:00,76.7,70.8,29.87,WNW,298,0.0,1.0,82,0.00,,---,0.00,VWS V14.01,2013-08-29 05:11:00,
2013-08-29 00:16:00,76.6,70.7,29.86,WNW,298,0.0,1.0,82,0.00,,---,0.00,VWS V14.01,2013-08-29 05:16:00,
2013-08-29 00:21:00,76.6,70.7,29.86,WNW,300,0.0,1.0,82,0.00,,---,0.00,VWS V14.01,2013-08-29 05:21:00,
2013-08-29 00:26:00,76.6,70.7,29.86,WNW,301,0.0,1.0,82,0.00,,---,0.00,VWS V14.01,2013-08-29 05:26:00,
2013-08-29 00:32:00,76.5,70.6,29.87,WNW,300,0.0,1.0,82,0.00,,---,0.00,VWS V14.01,2013-08-29 05:32:00,
2013-08-29 00:37:00,76.5,71.0,29.87,WNW,301,0.0,1.0,83,0.00,,---,0.00,VWS V14.01,2013-08-29 05:37:00,
2013-08-29 00:42:00,76.4,70.9,29.87,WNW,301,0.0,1.0,83,0.00,,---,0.00,VWS V14.01,2013-08-29 05:42:00,
2013-08-29 00:47:00,76.3,70.8,29.87,WNW,300,0.0,1.0,83,0.00,,---,0.00,VWS V14.01,2013-08-29 05:47:00,
2013-08-29 00:52:00,76.2,70.7,29.87,WNW,301,0.0,1.0,83,0.00,,---,0.00,VWS V14.01,2013-08-29 05:52:00,
2013-08-29 00:57:00,76.2,70.7,29.87,WNW,301,0.0,1.0,83,0.00,,---,0.00,VWS V14.01,2013-08-29 05:57:00,
2013-08-29 01:02:00,76.1,70.6,29.87,WNW,300,0.0,0.0,83,0.00,,---,0.00,VWS V14.01,2013-08-29 06:02:00,
2013-08-29 01:07:00,76.0,70.5,29.87,WNW,300,0.0,0.0,83,0.00,,---,0.00,VWS V14.01,2013-08-29 06:07:00,
2013-08-29 01:12:00,75.9,70.7,29.87,WNW,301,0.0,0.0,84,0.00,,---,0.00,VWS V14.01,2013-08-29 06:12:00,
2013-08-29 01:17:00,75.7,70.5,29.86,WNW,300,0.0,0.0,84,0.00,,---,0.00,VWS V14.01,2013-08-29 06:17:00,
2013-08-29 01:22:00,75.6,70.4,29.86,WNW,300,0.0,0.0,84,0.00,,---,0.00,VWS V14.01,2013-08-29 06:22:00,
2013-08-29 01:27:00,75.5,70.7,29.86,WNW,300,0.0,0.0,85,0.00,,---,0.00,VWS V14.01,2013-08-29 06:27:00,
2013-08-29 01:32:00,75.4,70.6,29.86,WNW,300,0.0,0.0,85,0.00,,---,0.00,VWS V14.01,2013-08-29 06:32:00,
2013-08-29 01:37:00,75.3,70.5,29.86,WNW,301,0.0,0.0,85,0.00,,---,0.00,VWS V14.01,2013-08-29 06:37:00,
2013-08-29 01:42:00,75.2,70.4,29.86,WNW,301,0.0,0.0,85,0.00,,---,0.00,VWS V14.01,2013-08-29 06:42:00,
2013-08-29 01:47:00,75.2,70.4,29.86,WNW,300,0.0,0.0,85,0.00,,---,0.00,VWS V14.01,2013-08-29 06:47:00,
2013-08-29 01:52:00,75.1,70.3,29.86,WNW,300,0.0,0.0,85,0.00,,---,0.00,VWS V14.01,2013-08-29 06:52:00,
2013-08-29 01:57:00,75.1,70.3,29.86,WNW,300,0.0,0.0,85,0.00,,---,0.00,VWS V14.01,2013-08-29 06:57:00,
2013-08-29 02:02:00,75.0,70.5,29.86,WNW,300,0.0,0.0,86,0.00,,---,0.00,VWS V14.01,2013-08-29 07:02:00,
2013-08-29 02:07:00,74.9,70.4,29.86,WNW,301,0.0,0.0,86,0.00,,---,0.00,VWS V14.01,2013-08-29 07:07:00,
2013-08-29 02:12:00,74.9,70.4,29.86,WNW,300,0.0,0.0,86,0.00,,---,0.00,VWS V14.01,2013-08-29 07:12:00,
2013-08-29 02:17:00,74.8,70.3,29.86,WNW,300,0.0,0.0,86,0.00,,---,0.00,VWS V14.01,2013-08-29 07:17:00,
2013-08-29 02:22:00,74.8,70.3,29.86,WNW,300,0.0,0.0,86,0.00,,---,0.00,VWS V14.01,2013-08-29 07:22:00,
2013-08-29 02:27:00,74.7,70.2,29.86,WNW,300,0.0,0.0,86,0.00,,---,0.00,VWS V14.01,2013-08-29 07:27:00,
2013-08-29 02:32:00,74.7,70.2,29.86,WNW,300,0.0,0.0,86,0.00,,---,0.00,VWS V14.01,2013-08-29 07:32:00,
2013-08-29 02:37:00,74.6,70.1,29.86,WNW,300,0.0,0.0,86,0.00,,---,0.00,VWS V14.01,2013-08-29 07:37:00,
2013-08-29 02:42:00,74.5,70.0,29.86,WNW,300,0.0,0.0,86,0.00,,---,0.00,VWS V14.01,2013-08-29 07:42:00,
2013-08-29 02:47:00,74.4,69.9,29.86,WNW,300,0.0,0.0,86,0.00,,---,0.00,VWS V14.01,2013-08-29 07:47:00,
2013-08-29 02:52:00,74.4,70.3,29.86,WNW,300,0.0,0.0,87,0.00,,---,0.00,VWS V14.01,2013-08-29 07:52:00,
2013-08-29 02:57:00,74.3,70.2,29.86,WNW,301,0.0,0.0,87,0.00,,---,0.00,VWS V14.01,2013-08-29 07:57:00,
2013-08-29 03:02:00,74.2,70.1,29.86,WNW,301,0.0,0.0,87,0.00,,---,0.00,VWS V14.01,2013-08-29 08:02:00,
2013-08-29 03:07:00,74.2,70.1,29.86,WNW,300,0.0,0.0,87,0.00,,---,0.00,VWS V14.01,2013-08-29 08:07:00,
2013-08-29 03:12:00,74.1,70.0,29.86,WNW,300,0.0,0.0,87,0.00,,---,0.00,VWS V14.01,2013-08-29 08:12:00,
2013-08-29 03:17:00,74.1,70.0,29.86,WNW,301,0.0,0.0,87,0.00,,---,0.00,VWS V14.01,2013-08-29 08:17:00,
2013-08-29 03:22:00,74.1,70.0,29.86,WNW,300,0.0,0.0,87,0.00,,---,0.00,VWS V14.01,2013-08-29 08:22:00,
2013-08-29 03:27:00,74.1,70.3,29.86,WNW,300,0.0,0.0,88,0.00,,---,0.00,VWS V14.01,2013-08-29 08:27:00,
2013-08-29 03:32:00,74.0,70.2,29.86,WNW,300,0.0,0.0,88,0.00,,---,0.00,VWS V14.01,2013-08-29 08:32:00,
2013-08-29 03:37:00,74.0,70.2,29.86,WNW,301,0.0,0.0,88,0.00,,---,0.00,VWS V14.01,2013-08-29 08:37:00,
2013-08-29 03:42:00,73.9,70.1,29.86,WNW,300,0.0,0.0,88,0.00,,---,0.00,VWS V14.01,2013-08-29 08:42:00,
2013-08-29 03:47:00,73.8,70.0,29.86,WNW,301,0.0,0.0,88,0.00,,---,0.00,VWS V14.01,2013-08-29 08:47:00,
2013-08-29 03:52:00,73.7,69.9,29.86,WNW,301,0.0,0.0,88,0.00,,---,0.00,VWS V14.01,2013-08-29 08:52:00,
2013-08-29 03:57:00,73.7,69.9,29.86,WNW,301,0.0,0.0,88,0.00,,---,0.00,VWS V14.01,2013-08-29 08:57:00,
2013-08-29 04:02:00,73.5,69.7,29.86,WNW,300,0.0,0.0,88,0.00,,---,0.00,VWS V14.01,2013-08-29 09:02:00,
2013-08-29 04:07:00,73.4,70.0,29.86,WNW,301,0.0,0.0,89,0.00,,---,0.00,VWS V14.01,2013-08-29 09:07:00,
2013-08-29 04:12:00,73.3,69.9,29.86,WNW,301,0.0,0.0,89,0.00,,---,0.00,VWS V14.01,2013-08-29 09:12:00,
2013-08-29 04:17:00,73.2,69.8,29.86,WNW,300,0.0,0.0,89,0.00,,---,0.00,VWS V14.01,2013-08-29 09:17:00,
2013-08-29 04:22:00,73.0,69.6,29.86,WNW,300,0.0,0.0,89,0.00,,---,0.00,VWS V14.01,2013-08-29 09:22:00,
2013-08-29 04:27:00,72.9,69.8,29.86,WNW,300,0.0,0.0,90,0.00,,---,0.00,VWS V14.01,2013-08-29 09:27:00,
2013-08-29 04:32:00,72.7,69.6,29.86,WNW,300,0.0,0.0,90,0.00,,---,0.00,VWS V14.01,2013-08-29 09:32:00,
2013-08-29 04:37:00,72.6,69.5,29.86,WNW,300,0.0,0.0,90,0.00,,---,0.00,VWS V14.01,2013-08-29 09:37:00,
2013-08-29 04:42:00,72.5,69.4,29.86,WNW,300,0.0,0.0,90,0.00,,---,0.00,VWS V14.01,2013-08-29 09:42:00,
2013-08-29 04:47:00,72.4,69.6,29.86,WNW,300,0.0,0.0,91,0.00,,---,0.00,VWS V14.01,2013-08-29 09:47:00,
2013-08-29 04:52:00,72.3,69.5,29.86,WNW,300,0.0,0.0,91,0.00,,---,0.00,VWS V14.01,2013-08-29 09:52:00,
2013-08-29 04:57:00,72.3,69.5,29.86,WNW,301,0.0,0.0,91,0.00,,---,0.00,VWS V14.01,2013-08-29 09:57:00,
2013-08-29 05:02:00,72.4,69.6,29.86,WNW,300,0.0,0.0,91,0.00,,---,0.00,VWS V14.01,2013-08-29 10:02:00,
2013-08-29 05:07:00,72.5,69.7,29.86,WNW,300,0.0,0.0,91,0.00,,---,0.00,VWS V14.01,2013-08-29 10:07:00,
2013-08-29 05:12:00,72.6,69.8,29.86,WNW,301,0.0,0.0,91,0.00,,---,0.00,VWS V14.01,2013-08-29 10:12:00,
2013-08-29 05:17:00,72.7,69.9,29.86,WNW,300,0.0,0.0,91,0.00,,---,0.00,VWS V14.01,2013-08-29 10:17:00,
2013-08-29 05:22:00,72.8,70.0,29.86,WNW,300,0.0,0.0,91,0.00,,---,0.00,VWS V14.01,2013-08-29 10:22:00,
2013-08-29 05:27:00,72.8,70.0,29.86,WNW,300,0.0,0.0,91,0.00,,---,0.00,VWS V14.01,2013-08-29 10:27:00,
2013-08-29 05:32:00,72.9,70.1,29.86,WNW,300,0.0,0.0,91,0.00,,---,0.00,VWS V14.01,2013-08-29 10:32:00,
2013-08-29 05:37:00,73.0,70.2,29.86,WNW,300,0.0,0.0,91,0.00,,---,0.00,VWS V14.01,2013-08-29 10:37:00,
2013-08-29 05:42:00,73.0,70.2,29.86,WNW,300,0.0,0.0,91,0.00,,---,0.00,VWS V14.01,2013-08-29 10:42:00,
2013-08-29 05:47:00,72.9,70.1,29.86,WNW,300,0.0,0.0,91,0.00,,---,0.00,VWS V14.01,2013-08-29 10:47:00,
2013-08-29 05:52:00,72.9,70.1,29.86,WNW,300,0.0,0.0,91,0.00,,---,0.00,VWS V14.01,2013-08-29 10:52:00,
2013-08-29 05:57:00,72.9,69.8,29.86,WNW,300,0.0,0.0,90,0.00,,---,0.00,VWS V14.01,2013-08-29 10:57:00,
2013-08-29 06:02:00,72.8,69.7,29.87,WNW,301,0.0,0.0,90,0.00,,---,0.00,VWS V14.01,2013-08-29 11:02:00,
2013-08-29 06:07:00,72.7,69.6,29.87,WNW,301,0.0,0.0,90,0.00,,---,0.00,VWS V14.01,2013-08-29 11:07:00,
2013-08-29 06:12:00,72.6,69.5,29.87,WNW,300,0.0,0.0,90,0.00,,---,0.00,VWS V14.01,2013-08-29 11:12:00,
2013-08-29 06:17:00,72.5,69.7,29.88,WNW,300,0.0,0.0,91,0.00,,---,0.00,VWS V14.01,2013-08-29 11:17:00,
2013-08-29 06:22:00,72.4,69.6,29.88,WNW,301,0.0,0.0,91,0.00,,---,0.00,VWS V14.01,2013-08-29 11:22:00,
2013-08-29 06:27:00,72.4,69.6,29.88,WNW,301,0.0,0.0,91,0.00,,---,0.00,VWS V14.01,2013-08-29 11:27:00,
2013-08-29 06:32:00,72.4,69.6,29.88,WNW,300,0.0,0.0,91,0.00,,---,0.00,VWS V14.01,2013-08-29 11:32:00,
2013-08-29 06:37:00,72.4,69.6,29.88,WNW,300,0.0,0.0,91,0.00,,---,0.00,VWS V14.01,2013-08-29 11:37:00,
2013-08-29 06:42:00,72.4,69.6,29.88,WNW,300,0.0,0.0,91,0.00,,---,0.00,VWS V14.01,2013-08-29 11:42:00,
2013-08-29 06:47:00,72.5,69.7,29.89,WNW,300,0.0,0.0,91,0.00,,---,0.00,VWS V14.01,2013-08-29 11:47:00,
2013-08-29 06:52:00,72.7,69.9,29.89,WNW,300,0.0,0.0,91,0.00,,---,0.00,VWS V14.01,2013-08-29 11:52:00,
2013-08-29 06:57:00,72.9,70.1,29.89,WNW,300,0.0,0.0,91,0.00,,---,0.00,VWS V14.01,2013-08-29 11:57:00,
2013-08-29 07:02:00,73.2,70.4,29.89,WNW,300,0.0,0.0,91,0.00,,---,0.00,VWS V14.01,2013-08-29 12:02:00,
2013-08-29 07:07:00,73.5,70.4,29.89,WNW,301,0.0,0.0,90,0.00,,---,0.00,VWS V14.01,2013-08-29 12:07:00,
2013-08-29 07:12:00,73.9,70.8,29.89,WNW,301,0.0,0.0,90,0.00,,---,0.00,VWS V14.01,2013-08-29 12:12:00,
2013-08-29 07:17:00,74.1,70.7,29.90,WNW,301,0.0,0.0,89,0.00,,---,0.00,VWS V14.01,2013-08-29 12:17:00,
2013-08-29 07:22:00,74.5,70.7,29.90,WNW,301,0.0,0.0,88,0.00,,---,0.00,VWS V14.01,2013-08-29 12:22:00,
2013-08-29 07:27:00,74.8,71.0,29.90,WNW,298,0.0,0.0,88,0.00,,---,0.00,VWS V14.01,2013-08-29 12:27:00,
2013-08-29 07:32:00,75.2,71.1,29.89,WNW,298,0.0,0.0,87,0.00,,---,0.00,VWS V14.01,2013-08-29 12:32:00,
2013-08-29 07:37:00,75.5,71.4,29.89,WNW,293,0.0,0.0,87,0.00,,---,0.00,VWS V14.01,2013-08-29 12:37:00,
2013-08-29 07:42:00,75.9,71.4,29.89,West,275,0.0,0.0,86,0.00,,---,0.00,VWS V14.01,2013-08-29 12:42:00,
2013-08-29 07:47:00,76.3,71.5,29.89,West,273,0.0,0.0,85,0.00,,---,0.00,VWS V14.01,2013-08-29 12:47:00,
2013-08-29 07:52:00,76.7,71.9,29.89,West,274,0.0,0.0,85,0.00,,---,0.00,VWS V14.01,2013-08-29 12:52:00,
2013-08-29 07:57:00,77.1,71.9,29.89,WNW,283,0.0,0.0,84,0.00,,---,0.00,VWS V14.01,2013-08-29 12:57:00,
2013-08-29 08:02:00,77.4,71.8,29.89,WNW,284,0.0,0.0,83,0.00,,---,0.00,VWS V14.01,2013-08-29 13:02:00,
2013-08-29 08:07:00,77.5,71.9,29.89,WNW,300,0.0,0.0,83,0.00,,---,0.00,VWS V14.01,2013-08-29 13:07:00,
2013-08-29 08:12:00,77.8,72.2,29.89,WNW,296,0.0,0.0,83,0.00,,---,0.00,VWS V14.01,2013-08-29 13:12:00,
2013-08-29 08:17:00,78.1,72.2,29.89,WNW,296,0.0,0.0,82,0.00,,---,0.00,VWS V14.01,2013-08-29 13:17:00,
2013-08-29 08:22:00,78.4,72.4,29.89,WNW,296,0.0,0.0,82,0.00,,---,0.00,VWS V14.01,2013-08-29 13:22:00,
2013-08-29 08:27:00,78.7,72.8,29.89,WNW,296,0.0,0.0,82,0.00,,---,0.00,VWS V14.01,2013-08-29 13:27:00,
2013-08-29 08:32:00,79.0,72.7,29.89,WNW,295,0.0,0.0,81,0.00,,---,0.00,VWS V14.01,2013-08-29 13:32:00,
2013-08-29 08:37:00,79.2,72.9,29.89,WNW,289,0.0,0.0,81,0.00,,---,0.00,VWS V14.01,2013-08-29 13:37:00,
2013-08-29 08:42:00,79.5,73.2,29.89,SSW,193,0.0,0.0,81,0.00,,---,0.00,VWS V14.01,2013-08-29 13:42:00,
2013-08-29 08:47:00,79.8,73.1,29.89,West,272,0.0,0.0,80,0.00,,---,0.00,VWS V14.01,2013-08-29 13:47:00,
2013-08-29 08:52:00,80.2,73.5,29.89,WNW,288,0.0,0.0,80,0.00,,---,0.00,VWS V14.01,2013-08-29 13:52:00,
2013-08-29 08:57:00,80.5,73.8,29.89,WNW,287,0.0,0.0,80,0.00,,---,0.00,VWS V14.01,2013-08-29 13:57:00,
2013-08-29 09:02:00,80.8,73.7,29.90,WNW,289,0.0,0.0,79,0.00,,---,0.00,VWS V14.01,2013-08-29 14:02:00,
2013-08-29 09:07:00,81.1,74.0,29.90,WNW,282,0.0,0.0,79,0.00,,---,0.00,VWS V14.01,2013-08-29 14:07:00,
2013-08-29 09:12:00,81.3,74.2,29.90,WNW,293,0.0,0.0,79,0.00,,---,0.00,VWS V14.01,2013-08-29 14:12:00,
2013-08-29 09:17:00,81.6,74.1,29.90,West,277,0.0,0.0,78,0.00,,---,0.00,VWS V14.01,2013-08-29 14:17:00,
2013-08-29 09:22:00,81.9,74.0,29.90,WNW,286,0.0,0.0,77,0.00,,---,0.00,VWS V14.01,2013-08-29 14:22:00,
2013-08-29 09:27:00,82.1,74.2,29.90,WNW,294,0.0,0.0,77,0.00,,---,0.00,VWS V14.01,2013-08-29 14:27:00,
2013-08-29 09:32:00,82.3,74.4,29.89,WNW,293,0.0,0.0,77,0.00,,---,0.00,VWS V14.01,2013-08-29 14:32:00,
2013-08-29 09:37:00,82.4,74.5,29.89,WNW,298,0.0,0.0,77,0.00,,---,0.00,VWS V14.01,2013-08-29 14:37:00,
2013-08-29 09:42:00,82.8,74.9,29.89,WNW,299,0.0,0.0,77,0.00,,---,0.00,VWS V14.01,2013-08-29 14:42:00,
2013-08-29 09:47:00,83.1,74.0,29.89,WSW,248,3.0,6.0,74,0.00,,---,0.00,VWS V14.01,2013-08-29 14:47:00,
2013-08-29 09:52:00,83.3,74.2,29.89,WNW,290,0.0,6.0,74,0.00,,---,0.00,VWS V14.01,2013-08-29 14:52:00,
2013-08-29 09:57:00,83.6,74.0,29.89,West,269,0.0,6.0,73,0.00,,---,0.00,VWS V14.01,2013-08-29 14:57:00,
2013-08-29 10:02:00,84.0,74.4,29.90,West,271,0.0,6.0,73,0.00,,---,0.00,VWS V14.01,2013-08-29 15:02:00,
2013-08-29 10:07:00,84.4,74.8,29.90,NW,319,1.0,1.0,73,0.00,,---,0.00,VWS V14.01,2013-08-29 15:07:00,
2013-08-29 10:12:00,84.8,74.4,29.90,NNW,335,2.0,4.0,71,0.00,,---,0.00,VWS V14.01,2013-08-29 15:12:00,
2013-08-29 10:17:00,85.0,74.6,29.90,NNW,327,1.0,5.0,71,0.00,,---,0.00,VWS V14.01,2013-08-29 15:17:00,
2013-08-29 10:22:00,85.0,74.1,29.90,WNW,294,0.0,6.0,70,0.00,,---,0.00,VWS V14.01,2013-08-29 15:22:00,
2013-08-29 10:27:00,85.3,74.4,29.90,WNW,302,0.0,6.0,70,0.00,,---,0.00,VWS V14.01,2013-08-29 15:27:00,
2013-08-29 10:32:00,85.7,74.8,29.89,West,276,0.0,6.0,70,0.00,,---,0.00,VWS V14.01,2013-08-29 15:32:00,
2013-08-29 10:37:00,85.9,74.6,29.89,WNW,288,2.0,5.0,69,0.00,,---,0.00,VWS V14.01,2013-08-29 15:37:00,
2013-08-29 10:42:00,86.1,74.3,29.89,NW,305,0.0,6.0,68,0.00,,---,0.00,VWS V14.01,2013-08-29 15:42:00,
2013-08-29 10:47:00,86.4,74.6,29.89,NNW,329,0.0,6.0,68,0.00,,---,0.00,VWS V14.01,2013-08-29 15:47:00,
2013-08-29 10:52:00,86.8,74.5,29.89,WNW,303,0.0,6.0,67,0.00,,---,0.00,VWS V14.01,2013-08-29 15:52:00,
2013-08-29 10:57:00,87.5,75.2,29.89,North,5,3.0,6.0,67,0.00,,---,0.00,VWS V14.01,2013-08-29 15:57:00,
2013-08-29 11:02:00,88.1,75.3,29.89,West,278,2.0,6.0,66,0.00,,---,0.00,VWS V14.01,2013-08-29 16:02:00,
2013-08-29 11:07:00,88.0,74.8,29.89,North,5,2.0,7.0,65,0.00,,---,0.00,VWS V14.01,2013-08-29 16:07:00,
2013-08-29 11:12:00,88.5,75.2,29.89,West,281,2.0,7.0,65,0.00,,---,0.00,VWS V14.01,2013-08-29 16:12:00,
2013-08-29 11:17:00,89.1,75.3,29.89,WNW,299,0.0,7.0,64,0.00,,---,0.00,VWS V14.01,2013-08-29 16:17:00,
2013-08-29 11:22:00,89.5,75.7,29.89,WNW,294,0.0,7.0,64,0.00,,---,0.00,VWS V14.01,2013-08-29 16:22:00,
2013-08-29 11:27:00,89.6,75.3,29.89,WNW,300,0.0,7.0,63,0.00,,---,0.00,VWS V14.01,2013-08-29 16:27:00,
2013-08-29 11:32:00,90.1,75.3,29.89,NNW,331,0.0,7.0,62,0.00,,---,0.00,VWS V14.01,2013-08-29 16:32:00,
2013-08-29 11:37:00,90.8,76.0,29.89,WNW,294,0.0,6.0,62,0.00,,---,0.00,VWS V14.01,2013-08-29 16:37:00,
2013-08-29 11:42:00,90.6,75.8,29.89,WNW,285,0.0,7.0,62,0.00,,---,0.00,VWS V14.01,2013-08-29 16:42:00,
2013-08-29 11:47:00,90.6,74.8,29.88,NNW,345,2.0,7.0,60,0.00,,---,0.00,VWS V14.01,2013-08-29 16:47:00,
2013-08-29 11:52:00,90.6,75.8,29.88,WNW,294,2.0,7.0,62,0.00,,---,0.00,VWS V14.01,2013-08-29 16:52:00,
2013-08-29 11:57:00,90.5,75.7,29.88,NW,321,0.0,7.0,62,0.00,,---,0.00,VWS V14.01,2013-08-29 16:57:00,
2013-08-29 12:02:00,91.3,76.0,29.88,WNW,296,6.0,7.0,61,0.00,,---,0.00,VWS V14.01,2013-08-29 17:02:00,
2013-08-29 12:07:00,91.4,74.6,29.88,WNW,293,0.0,7.0,58,0.00,,---,0.00,VWS V14.01,2013-08-29 17:07:00,
2013-08-29 12:12:00,91.4,75.6,29.88,West,267,1.0,7.0,60,0.00,,---,0.00,VWS V14.01,2013-08-29 17:12:00,
2013-08-29 12:17:00,91.8,75.4,29.87,WNW,291,0.0,7.0,59,0.00,,---,0.00,VWS V14.01,2013-08-29 17:17:00,
2013-08-29 12:22:00,92.2,75.8,29.87,West,270,0.0,7.0,59,0.00,,---,0.00,VWS V14.01,2013-08-29 17:22:00,
2013-08-29 12:27:00,92.4,76.0,29.87,NW,313,1.0,7.0,59,0.00,,---,0.00,VWS V14.01,2013-08-29 17:27:00,
2013-08-29 12:32:00,92.8,75.9,29.87,North,355,1.0,7.0,58,0.00,,---,0.00,VWS V14.01,2013-08-29 17:32:00,
2013-08-29 12:37:00,93.2,75.7,29.87,WNW,292,5.0,7.0,57,0.00,,---,0.00,VWS V14.01,2013-08-29 17:37:00,
2013-08-29 12:42:00,93.0,75.5,29.87,WSW,257,0.0,7.0,57,0.00,,---,0.00,VWS V14.01,2013-08-29 17:42:00,
2013-08-29 12:47:00,92.9,73.3,29.87,WNW,301,4.0,7.0,53,0.00,,---,0.00,VWS V14.01,2013-08-29 17:47:00,
2013-08-29 12:52:00,92.2,74.2,29.87,WNW,297,0.0,7.0,56,0.00,,---,0.00,VWS V14.01,2013-08-29 17:52:00,
2013-08-29 12:57:00,92.4,75.0,29.87,North,355,1.0,7.0,57,0.00,,---,0.00,VWS V14.01,2013-08-29 17:57:00,
2013-08-29 13:02:00,92.7,75.2,29.87,WSW,250,0.0,0.0,57,0.00,,---,0.00,VWS V14.01,2013-08-29 18:02:00,
2013-08-29 13:07:00,92.9,75.9,29.87,NNW,333,0.0,3.0,58,0.00,,---,0.00,VWS V14.01,2013-08-29 18:07:00,
2013-08-29 13:12:00,93.8,75.7,29.87,NNE,33,1.0,3.0,56,0.00,,---,0.00,VWS V14.01,2013-08-29 18:12:00,
2013-08-29 13:17:00,93.9,73.6,29.87,WNW,300,3.0,10.0,52,0.00,,---,0.00,VWS V14.01,2013-08-29 18:17:00,
2013-08-29 13:22:00,93.1,74.6,29.87,NW,311,1.0,10.0,55,0.00,,---,0.00,VWS V14.01,2013-08-29 18:22:00,
2013-08-29 13:27:00,92.8,74.3,29.87,WNW,282,0.0,10.0,55,0.00,,---,0.00,VWS V14.01,2013-08-29 18:27:00,
2013-08-29 13:32:00,92.8,74.3,29.86,WNW,286,0.0,2.0,55,0.00,,---,0.00,VWS V14.01,2013-08-29 18:32:00,
2013-08-29 13:37:00,93.4,75.4,29.86,NE,38,2.0,4.0,56,0.00,,---,0.00,VWS V14.01,2013-08-29 18:37:00,
2013-08-29 13:42:00,94.0,74.8,29.86,WNW,296,6.0,7.0,54,0.00,,---,0.00,VWS V14.01,2013-08-29 18:42:00,
2013-08-29 13:47:00,93.7,75.1,29.86,West,276,0.0,7.0,55,0.00,,---,0.00,VWS V14.01,2013-08-29 18:47:00,
2013-08-29 13:52:00,93.8,75.2,29.86,WNW,290,0.0,7.0,55,0.00,,---,0.00,VWS V14.01,2013-08-29 18:52:00,
2013-08-29 13:57:00,94.1,74.9,29.86,NNE,15,3.0,7.0,54,0.00,,---,0.00,VWS V14.01,2013-08-29 18:57:00,
2013-08-29 14:02:00,94.1,74.4,29.86,NNW,339,2.0,2.0,53,0.00,,---,0.00,VWS V14.01,2013-08-29 19:02:00,
2013-08-29 14:07:00,94.0,74.8,29.86,WNW,294,4.0,7.0,54,0.00,,---,0.00,VWS V14.01,2013-08-29 19:07:00,
2013-08-29 14:12:00,94.3,76.2,29.86,NW,309,1.0,7.0,56,0.00,,---,0.00,VWS V14.01,2013-08-29 19:12:00,
2013-08-29 14:17:00,94.8,75.0,29.85,WNW,302,3.0,7.0,53,0.00,,---,0.00,VWS V14.01,2013-08-29 19:17:00,
2013-08-29 14:22:00,94.8,75.0,29.85,WNW,288,1.0,7.0,53,0.00,,---,0.00,VWS V14.01,2013-08-29 19:22:00,
2013-08-29 14:27:00,95.0,75.8,29.85,NNW,335,2.0,7.0,54,0.00,,---,0.00,VWS V14.01,2013-08-29 19:27:00,
2013-08-29 14:32:00,94.8,76.1,29.85,North,5,0.0,1.0,55,0.00,,---,0.00,VWS V14.01,2013-08-29 19:32:00,
2013-08-29 14:37:00,95.1,76.4,29.85,North,5,0.0,1.0,55,0.00,,---,0.00,VWS V14.01,2013-08-29 19:37:00,
2013-08-29 14:42:00,95.4,76.1,29.85,NNW,346,1.0,3.0,54,0.00,,---,0.00,VWS V14.01,2013-08-29 19:42:00,
2013-08-29 14:47:00,95.1,76.4,29.84,WNW,300,5.0,5.0,55,0.00,,---,0.00,VWS V14.01,2013-08-29 19:47:00,
2013-08-29 14:52:00,94.8,76.1,29.84,WNW,300,0.0,5.0,55,0.00,,---,0.00,VWS V14.01,2013-08-29 19:52:00,
2013-08-29 14:57:00,93.9,75.8,29.84,WNW,303,1.0,5.0,56,0.00,,---,0.00,VWS V14.01,2013-08-29 19:57:00,
2013-08-29 15:02:00,93.6,76.1,29.84,WNW,298,0.0,1.0,57,0.00,,---,0.00,VWS V14.01,2013-08-29 20:02:00,
2013-08-29 15:07:00,93.8,76.3,29.84,WNW,296,2.0,7.0,57,0.00,,---,0.00,VWS V14.01,2013-08-29 20:07:00,
2013-08-29 15:12:00,94.4,76.8,29.84,West,281,0.0,7.0,57,0.00,,---,0.00,VWS V14.01,2013-08-29 20:12:00,
2013-08-29 15:17:00,95.3,76.6,29.83,WNW,288,2.0,7.0,55,0.00,,---,0.00,VWS V14.01,2013-08-29 20:17:00,
2013-08-29 15:22:00,95.3,76.0,29.83,West,276,0.0,7.0,54,0.00,,---,0.00,VWS V14.01,2013-08-29 20:22:00,
2013-08-29 15:27:00,95.4,76.1,29.83,WNW,291,1.0,7.0,54,0.00,,---,0.00,VWS V14.01,2013-08-29 20:27:00,
2013-08-29 15:32:00,95.5,76.2,29.83,NNW,342,1.0,1.0,54,0.00,,---,0.00,VWS V14.01,2013-08-29 20:32:00,
2013-08-29 15:37:00,95.2,75.9,29.83,NNE,26,0.0,6.0,54,0.00,,---,0.00,VWS V14.01,2013-08-29 20:37:00,
2013-08-29 15:42:00,95.2,75.4,29.83,NW,315,3.0,6.0,53,0.00,,---,0.00,VWS V14.01,2013-08-29 20:42:00,
2013-08-29 15:47:00,94.9,76.2,29.83,NW,316,1.0,7.0,55,0.00,,---,0.00,VWS V14.01,2013-08-29 20:47:00,
2013-08-29 15:52:00,94.5,75.8,29.83,WNW,288,1.0,7.0,55,0.00,,---,0.00,VWS V14.01,2013-08-29 20:52:00,
2013-08-29 15:57:00,94.6,75.4,29.83,NW,304,0.0,7.0,54,0.00,,---,0.00,VWS V14.01,2013-08-29 20:57:00,
2013-08-29 16:02:00,94.7,76.0,29.83,WNW,293,2.0,4.0,55,0.00,,---,0.00,VWS V14.01,2013-08-29 21:02:00,
2013-08-29 16:07:00,94.5,75.8,29.83,NW,316,2.0,5.0,55,0.00,,---,0.00,VWS V14.01,2013-08-29 21:07:00,
2013-08-29 16:12:00,94.5,75.8,29.83,WNW,290,4.0,5.0,55,0.00,,---,0.00,VWS V14.01,2013-08-29 21:12:00,
2013-08-29 16:17:00,94.0,76.5,29.83,WNW,298,3.0,6.0,57,0.00,,---,0.00,VWS V14.01,2013-08-29 21:17:00,
2013-08-29 16:22:00,93.7,75.6,29.83,WNW,293,2.0,6.0,56,0.00,,---,0.00,VWS V14.01,2013-08-29 21:22:00,
2013-08-29 16:27:00,92.9,75.4,29.83,WNW,292,2.0,6.0,57,0.00,,---,0.00,VWS V14.01,2013-08-29 21:27:00,
2013-08-29 16:32:00,92.7,76.3,29.83,WNW,294,3.0,3.0,59,0.00,,---,0.00,VWS V14.01,2013-08-29 21:32:00,
2013-08-29 16:37:00,93.2,77.8,29.83,West,279,0.0,3.0,61,0.00,,---,0.00,VWS V14.01,2013-08-29 21:37:00,
2013-08-29 16:42:00,93.7,77.2,29.83,WNW,298,0.0,6.0,59,0.00,,---,0.00,VWS V14.01,2013-08-29 21:42:00,
2013-08-29 16:47:00,93.5,77.0,29.83,West,281,0.0,6.0,59,0.00,,---,0.00,VWS V14.01,2013-08-29 21:47:00,
2013-08-29 16:52:00,93.2,76.8,29.83,WSW,250,2.0,7.0,59,0.00,,---,0.00,VWS V14.01,2013-08-29 21:52:00,
2013-08-29 16:57:00,92.8,77.4,29.83,WNW,290,1.0,7.0,61,0.00,,---,0.00,VWS V14.01,2013-08-29 21:57:00,
2013-08-29 17:02:00,92.4,76.0,29.82,WNW,291,1.0,5.0,59,0.00,,---,0.00,VWS V14.01,2013-08-29 22:02:00,
2013-08-29 17:07:00,91.9,76.5,29.82,NW,310,0.0,5.0,61,0.00,,---,0.00,VWS V14.01,2013-08-29 22:07:00,
2013-08-29 17:12:00,91.5,76.7,29.82,WNW,282,1.0,5.0,62,0.00,,---,0.00,VWS V14.01,2013-08-29 22:12:00,
2013-08-29 17:17:00,91.1,76.3,29.82,WNW,298,4.0,5.0,62,0.00,,---,0.00,VWS V14.01,2013-08-29 22:17:00,
2013-08-29 17:22:00,90.8,76.5,29.82,WNW,285,0.0,5.0,63,0.00,,---,0.00,VWS V14.01,2013-08-29 22:22:00,
2013-08-29 17:27:00,90.7,76.8,29.82,WNW,286,0.0,5.0,64,0.00,,---,0.00,VWS V14.01,2013-08-29 22:27:00,
2013-08-29 17:32:00,90.5,76.7,29.82,WNW,286,0.0,0.0,64,0.00,,---,0.00,VWS V14.01,2013-08-29 22:32:00,
2013-08-29 17:37:00,90.4,77.5,29.82,WNW,286,0.0,1.0,66,0.00,,---,0.00,VWS V14.01,2013-08-29 22:37:00,
2013-08-29 17:42:00,90.1,77.2,29.82,WNW,286,0.0,1.0,66,0.00,,---,0.00,VWS V14.01,2013-08-29 22:42:00,
2013-08-29 17:47:00,89.9,77.5,29.82,WNW,287,0.0,1.0,67,0.00,,---,0.00,VWS V14.01,2013-08-29 22:47:00,
2013-08-29 17:52:00,89.6,77.2,29.82,WNW,285,0.0,1.0,67,0.00,,---,0.00,VWS V14.01,2013-08-29 22:52:00,
2013-08-29 17:57:00,89.3,77.8,29.82,WNW,286,0.0,1.0,69,0.00,,---,0.00,VWS V14.01,2013-08-29 22:57:00,
2013-08-29 18:02:00,89.2,77.7,29.81,WNW,286,0.0,0.0,69,0.00,,---,0.00,VWS V14.01,2013-08-29 23:02:00,
2013-08-29 18:07:00,89.2,77.7,29.81,WNW,287,0.0,0.0,69,0.00,,---,0.00,VWS V14.01,2013-08-29 23:07:00,
2013-08-29 18:12:00,89.4,77.4,29.81,WNW,286,0.0,1.0,68,0.00,,---,0.00,VWS V14.01,2013-08-29 23:12:00,
2013-08-29 18:17:00,89.6,77.6,29.81,WNW,286,0.0,1.0,68,0.00,,---,0.00,VWS V14.01,2013-08-29 23:17:00,
2013-08-29 18:22:00,89.5,77.6,29.81,WNW,283,0.0,2.0,68,0.00,,---,0.00,VWS V14.01,2013-08-29 23:22:00,
2013-08-29 18:27:00,89.4,77.9,29.81,WNW,283,0.0,2.0,69,0.00,,---,0.00,VWS V14.01,2013-08-29 23:27:00,
2013-08-29 18:32:00,89.3,77.8,29.81,West,281,1.0,1.0,69,0.00,,---,0.00,VWS V14.01,2013-08-29 23:32:00,
2013-08-29 18:37:00,89.4,78.3,29.81,West,281,0.0,1.0,70,0.00,,---,0.00,VWS V14.01,2013-08-29 23:37:00,
2013-08-29 18:42:00,89.4,77.9,29.81,West,281,0.0,1.0,69,0.00,,---,0.00,VWS V14.01,2013-08-29 23:42:00,
2013-08-29 18:47:00,89.2,78.1,29.81,West,281,0.0,1.0,70,0.00,,---,0.00,VWS V14.01,2013-08-29 23:47:00,
2013-08-29 18:52:00,89.2,78.1,29.81,West,280,0.0,1.0,70,0.00,,---,0.00,VWS V14.01,2013-08-29 23:52:00,
2013-08-29 18:57:00,89.0,78.4,29.81,West,281,0.0,1.0,71,0.00,,---,0.00,VWS V14.01,2013-08-29 23:57:00,
2013-08-29 19:02:00,88.8,78.2,29.82,West,280,0.0,0.0,71,0.00,,---,0.00,VWS V14.01,2013-08-30 00:02:00,
2013-08-29 19:07:00,88.4,77.8,29.82,West,280,0.0,0.0,71,0.00,,---,0.00,VWS V14.01,2013-08-30 00:07:00,
2013-08-29 19:12:00,88.0,77.8,29.82,West,281,0.0,0.0,72,0.00,,---,0.00,VWS V14.01,2013-08-30 00:12:00,
2013-08-29 19:17:00,87.7,78.0,29.82,West,281,0.0,0.0,73,0.00,,---,0.00,VWS V14.01,2013-08-30 00:17:00,
2013-08-29 19:22:00,87.3,77.6,29.82,West,281,0.0,0.0,73,0.00,,---,0.00,VWS V14.01,2013-08-30 00:22:00,
2013-08-29 19:27:00,87.1,77.8,29.82,West,280,0.0,0.0,74,0.00,,---,0.00,VWS V14.01,2013-08-30 00:27:00,
2013-08-29 19:32:00,86.7,77.8,29.83,West,281,0.0,0.0,75,0.00,,---,0.00,VWS V14.01,2013-08-30 00:32:00,
2013-08-29 19:37:00,86.2,77.8,29.83,West,281,0.0,0.0,76,0.00,,---,0.00,VWS V14.01,2013-08-30 00:37:00,
2013-08-29 19:42:00,85.4,77.8,29.83,West,281,0.0,0.0,78,0.00,,---,0.00,VWS V14.01,2013-08-30 00:42:00,
2013-08-29 19:47:00,84.7,77.5,29.83,West,281,0.0,0.0,79,0.00,,---,0.00,VWS V14.01,2013-08-30 00:47:00,
2013-08-29 19:52:00,84.0,77.2,29.83,West,281,0.0,0.0,80,0.00,,---,0.00,VWS V14.01,2013-08-30 00:52:00,
2013-08-29 19:57:00,83.6,76.8,29.83,West,281,0.0,0.0,80,0.00,,---,0.00,VWS V14.01,2013-08-30 00:57:00,
2013-08-29 20:02:00,83.4,77.0,29.83,West,281,0.0,0.0,81,0.00,,---,0.00,VWS V14.01,2013-08-30 01:02:00,
2013-08-29 20:08:00,83.2,77.1,29.83,West,281,0.0,0.0,82,0.00,,---,0.00,VWS V14.01,2013-08-30 01:08:00,
2013-08-29 20:12:00,83.0,77.3,29.83,West,281,0.0,0.0,83,0.00,,---,0.00,VWS V14.01,2013-08-30 01:12:00,
2013-08-29 20:18:00,82.7,77.0,29.83,West,281,0.0,0.0,83,0.00,,---,0.00,VWS V14.01,2013-08-30 01:18:00,
2013-08-29 20:23:00,82.5,76.8,29.83,West,281,0.0,0.0,83,0.00,,---,0.00,VWS V14.01,2013-08-30 01:23:00,
2013-08-29 20:28:00,82.4,77.1,29.83,West,281,0.0,0.0,84,0.00,,---,0.00,VWS V14.01,2013-08-30 01:28:00,
2013-08-29 20:32:00,82.2,76.9,29.83,West,281,0.0,0.0,84,0.00,,---,0.00,VWS V14.01,2013-08-30 01:32:00,
2013-08-29 20:37:00,82.1,76.8,29.83,West,281,0.0,0.0,84,0.00,,---,0.00,VWS V14.01,2013-08-30 01:37:00,
2013-08-29 20:42:00,81.9,76.9,29.83,West,281,0.0,0.0,85,0.00,,---,0.00,VWS V14.01,2013-08-30 01:42:00,
2013-08-29 20:47:00,81.7,76.8,29.83,West,281,0.0,0.0,85,0.00,,---,0.00,VWS V14.01,2013-08-30 01:47:00,
2013-08-29 20:53:00,81.5,76.6,29.83,West,281,0.0,0.0,85,0.00,,---,0.00,VWS V14.01,2013-08-30 01:53:00,
2013-08-29 20:58:00,81.3,76.7,29.83,West,281,0.0,0.0,86,0.00,,---,0.00,VWS V14.01,2013-08-30 01:58:00,
2013-08-29 21:02:00,81.1,76.5,29.83,West,281,0.0,0.0,86,0.00,,---,0.00,VWS V14.01,2013-08-30 02:02:00,
2013-08-29 21:07:00,80.9,76.3,29.83,West,281,0.0,0.0,86,0.00,,---,0.00,VWS V14.01,2013-08-30 02:07:00,
2013-08-29 21:12:00,80.6,76.0,29.83,West,281,0.0,0.0,86,0.00,,---,0.00,VWS V14.01,2013-08-30 02:12:00,
2013-08-29 21:18:00,80.4,76.2,29.83,West,281,0.0,0.0,87,0.00,,---,0.00,VWS V14.01,2013-08-30 02:18:00,
2013-08-29 21:22:00,80.2,76.0,29.83,West,281,0.0,0.0,87,0.00,,---,0.00,VWS V14.01,2013-08-30 02:22:00,
2013-08-29 21:27:00,80.0,76.1,29.83,West,281,0.0,0.0,88,0.00,,---,0.00,VWS V14.01,2013-08-30 02:27:00,
2013-08-29 21:33:00,79.8,75.9,29.83,West,281,0.0,0.0,88,0.00,,---,0.00,VWS V14.01,2013-08-30 02:33:00,
2013-08-29 21:38:00,79.6,75.7,29.83,West,281,0.0,0.0,88,0.00,,---,0.00,VWS V14.01,2013-08-30 02:38:00,
2013-08-29 21:42:00,79.5,76.0,29.83,West,281,0.0,0.0,89,0.00,,---,0.00,VWS V14.01,2013-08-30 02:42:00,
2013-08-29 21:48:00,79.4,75.9,29.83,West,281,0.0,0.0,89,0.00,,---,0.00,VWS V14.01,2013-08-30 02:48:00,
2013-08-29 21:52:00,79.2,75.7,29.83,West,281,0.0,0.0,89,0.00,,---,0.00,VWS V14.01,2013-08-30 02:52:00,
2013-08-29 21:57:00,79.1,75.9,29.83,West,281,0.0,0.0,90,0.00,,---,0.00,VWS V14.01,2013-08-30 02:57:00,
2013-08-29 22:03:00,79.0,75.8,29.83,West,281,0.0,0.0,90,0.00,,---,0.00,VWS V14.01,2013-08-30 03:03:00,
2013-08-29 22:07:00,78.9,75.7,29.83,West,281,0.0,0.0,90,0.00,,---,0.00,VWS V14.01,2013-08-30 03:07:00,
2013-08-29 22:12:00,78.8,75.6,29.83,West,281,0.0,0.0,90,0.00,,---,0.00,VWS V14.01,2013-08-30 03:12:00,
2013-08-29 22:18:00,78.7,75.5,29.83,West,281,0.0,0.0,90,0.00,,---,0.00,VWS V14.01,2013-08-30 03:18:00,
2013-08-29 22:23:00,78.7,75.5,29.83,West,281,0.0,0.0,90,0.00,,---,0.00,VWS V14.01,2013-08-30 03:23:00,
2013-08-29 22:28:00,78.7,75.5,29.83,West,281,0.0,0.0,90,0.00,,---,0.00,VWS V14.01,2013-08-30 03:28:00,
2013-08-29 22:33:00,78.5,75.3,29.83,West,281,0.0,0.0,90,0.00,,---,0.00,VWS V14.01,2013-08-30 03:33:00,
2013-08-29 22:38:00,78.4,75.2,29.83,West,281,0.0,0.0,90,0.00,,---,0.00,VWS V14.01,2013-08-30 03:38:00,
2013-08-29 22:43:00,78.4,75.2,29.83,West,281,0.0,0.0,90,0.00,,---,0.00,VWS V14.01,2013-08-30 03:43:00,
2013-08-29 22:48:00,78.3,75.1,29.83,West,281,0.0,0.0,90,0.00,,---,0.00,VWS V14.01,2013-08-30 03:48:00,
2013-08-29 22:53:00,78.3,75.1,29.83,West,281,0.0,0.0,90,0.00,,---,0.00,VWS V14.01,2013-08-30 03:53:00,
2013-08-29 22:58:00,78.2,75.0,29.83,West,281,0.0,0.0,90,0.00,,---,0.00,VWS V14.01,2013-08-30 03:58:00,
2013-08-29 23:01:00,78.2,75.0,29.83,West,281,0.0,0.0,90,0.00,,---,0.00,VWS V14.01,2013-08-30 04:01:00,
2013-08-29 23:02:00,78.2,75.0,29.83,West,281,0.0,0.0,90,0.00,,---,0.00,VWS V14.01,2013-08-30 04:02:00,
2013-08-29 23:07:00,78.1,74.9,29.83,West,281,0.0,0.0,90,0.00,,---,0.00,VWS V14.01,2013-08-30 04:07:00,
2013-08-29 23:12:00,78.0,74.8,29.83,West,281,0.0,0.0,90,0.00,,---,0.00,VWS V14.01,2013-08-30 04:12:00,
2013-08-29 23:17:00,77.9,74.7,29.82,West,281,0.0,0.0,90,0.00,,---,0.00,VWS V14.01,2013-08-30 04:17:00,
2013-08-29 23:22:00,77.8,74.6,29.82,West,281,0.0,0.0,90,0.00,,---,0.00,VWS V14.01,2013-08-30 04:22:00,
2013-08-29 23:27:00,77.8,74.6,29.82,West,281,0.0,0.0,90,0.00,,---,0.00,VWS V14.01,2013-08-30 04:27:00,
2013-08-29 23:32:00,77.8,74.6,29.82,West,281,0.0,0.0,90,0.00,,---,0.00,VWS V14.01,2013-08-30 04:32:00,
2013-08-29 23:37:00,77.8,74.6,29.82,West,281,0.0,0.0,90,0.00,,---,0.00,VWS V14.01,2013-08-30 04:37:00,
2013-08-29 23:42:00,77.8,74.6,29.82,West,281,0.0,0.0,90,0.00,,---,0.00,VWS V14.01,2013-08-30 04:42:00,
2013-08-29 23:47:00,77.8,74.6,29.83,West,281,0.0,0.0,90,0.00,,---,0.00,VWS V14.01,2013-08-30 04:47:00,
2013-08-29 23:52:00,77.7,74.9,29.83,West,281,0.0,0.0,91,0.00,,---,0.00,VWS V14.01,2013-08-30 04:52:00,
2013-08-29 23:57:00,77.6,74.8,29.83,West,281,0.0,0.0,91,0.00,,---,0.00,VWS V14.01,2013-08-30 04:57:00,